Regional Weather Roundup
Issued by NWS

Home | Current Version | Previous Version | Graphics & Text | Print | Product List | Glossary On
Versions: 1 2 3 4 5 6 7 8 9 10 11 12 13 14 15 16 17 18 19 20 21 22 23 24 25 26 27 28 29 30 31 32 33 34 35 36 37 38 39 40 41 42 43 44 45 46 47 48 49 50
000
ASUS43 KLOT 010700
RWRIL

ILLINOIS REGIONAL WEATHER ROUNDUP
NATIONAL WEATHER SERVICE CHICAGO/ROMEOVILLE IL
200 AM CDT SAT AUG 01 2015

NOTE: "FAIR" INDICATES FEW OR NO CLOUDS BELOW 12,000 FEET WITH NO
SIGNIFICANT WEATHER AND/OR OBSTRUCTIONS TO VISIBILITY.

* THESE STATIONS ARE NOT UNDER NWS QUALITY CONTROL. THEY ALSO MAY NOT
  REPORT WEATHER SUCH AS PRECIPITATION OR FOG.

ILZ001-002-007-009-015-016-024-010800-
NORTHWEST ILLINOIS

CITY           SKY/WX    TMP DP  RH WIND       PRES   REMARKS
MOLINE         CLEAR     62  58  86 CALM      30.04F
STERLING*      CLEAR     63  57  82 W7        30.00F
$$

ILZ003-004-008-010-011-017-018-010800-
NORTH CENTRAL ILLINOIS

CITY           SKY/WX    TMP DP  RH WIND       PRES   REMARKS
ROCKFORD       CLEAR     62  54  74 CALM      30.03S
$$

ILZ005-006-012>014-019>023-010800-
NORTHEAST ILLINOIS

CITY           SKY/WX    TMP DP  RH WIND       PRES   REMARKS
CHICAGO-OHARE  CLEAR     68  52  56 W9        29.99S
CHICAGO-MIDWAY CLEAR     71  51  49 W7        29.99S
AURORA         CLEAR     58  54  86 W3        30.01S
WAUKEGAN       CLEAR     61  53  75 SW3       29.98R
DUPAGE AIRPORT CLEAR     63  53  70 W7        30.00S
WHEELING       CLEAR     67  50  54 CALM      30.00R
NORTHERLY ISL    N/A     73  50  44 W8          N/A
$$

LMZ740>746-010800-
SOUTHERN LAKE MICHIGAN

STATION/POSITION SKY/WX   TEMP    WIND        PRES    VSBY  WAVE
                          AIR SEA DIR/SP/G                  HT/PER
                          (F)     (DEG/KT/KT) (MB)    (MI)  (FT/S)
HARRISON CRIB              75     300/ 14/ 17   N/A
BURNHAM HARBOR             74     320/  7/ 10   N/A
CALUMET HARBOR             73     240/  3/  5   N/A
BURNS HARBOR               75     300/ 10/ 11 1015.6R
MICHIGAN CITY              75     280/ 14/ 16   N/A
MICHIGAN CITY 6N           75 74  310/ 12/ 16   N/A           2/ 4
ST. JOSEPH                 74 74  330/ 14/ 16   N/A           3/ 4
$$

ILZ025>027-034>036-040-047-049-050-058-095>099-010800-
WEST-CENTRAL ILLINOIS

CITY           SKY/WX    TMP DP  RH WIND       PRES   REMARKS
QUINCY         PTCLDY    74  66  76 E3        30.05F
MACOMB*        PTCLDY    65  61  87 N7        30.07F
$$

ILZ028>032-037-038-041>044-048-051>054-059>061-010800-
CENTRAL ILLINOIS

CITY           SKY/WX    TMP DP  RH WIND       PRES   REMARKS
DECATUR        CLEAR     73  58  59 NW9       30.04S
PEORIA         CLEAR     70  60  70 CALM      30.04F
SPRINGFIELD    MOCLDY    70  66  87 CALM      30.04F
TAYLORVILLE    NOT AVBL
$$

ILZ033-039-045-046-055>057-062-063-010800-
EAST-CENTRAL ILLINOIS

CITY           SKY/WX    TMP DP  RH WIND       PRES   REMARKS
CHAMPAIGN      CLEAR     64  59  83 N3        30.03F
MATTOON        PTCLDY    70  61  73 NW7       30.03S
$$

ILZ079-100>102-010800-
SOUTHWEST ILLINOIS

CITY           SKY/WX    TMP DP  RH WIND       PRES   REMARKS
CAHOKIA*       PTCLDY    71  67  87 CALM      30.03F
$$

ILZ064>066-069>071-074>076-080>082-084>086-088>090-092>094-010800-
SOUTH-CENTRAL ILLINOIS

CITY           SKY/WX    TMP DP  RH WIND       PRES   REMARKS
CARBONDALE     CLEAR     71  68  90 CALM      30.03F
MT. VERNON     CLEAR     66  63  88 CALM      30.03F
SALEM*         CLEAR     69  66  90 CALM      30.03F
$$

ILZ067-068-072-073-078-083-087-091-010800-
SOUTHEAST ILLINOIS

CITY           SKY/WX    TMP DP  RH WIND       PRES   REMARKS
LAWRENCEVILLE  CLEAR     72  68  87 NW5       30.01F
HARRISBURG*    CLEAR     69  69 100 CALM      30.04F
ROBINSON*      PTCLDY    68  67  96 CALM      30.03S
$$

ABBREVIATIONS USED IN REMARKS
   TC - TEMPERATURE IN CELSIUS
  WCI - WIND CHILL INDEX
   HX - HEAT INDEX
  VSB - VISIBILITY
$$




USA.gov is the U.S. government's official web portal to all federal, state and local government web resources and services.